| time (UTC) | temp F | wind direction | speed knots | gust knots | rain 1hr in | rain 24hr in | rain mn in | humidity % | barometer mb |
| 20260504214621 | 71 | 199 | 13.0 | 18.2 | 0.00 | 0.00 | 0.00 | 43 | 1008.7 |
| 20260504214117 | 71 | 184 | 5.2 | 7.8 | 0.00 | 0.00 | 0.00 | 43 | 1009.0 |
| 20260504213613 | 72 | 139 | 6.1 | 8.7 | 0.00 | 0.00 | 0.00 | 43 | 1009.0 |
| 20260504213110 | 71 | 226 | 8.7 | 15.6 | 0.00 | 0.00 | 0.00 | 44 | 1008.6 |
| 20260504212606 | 72 | 213 | 6.1 | 8.7 | 0.00 | 0.00 | 0.00 | 44 | 1008.9 |
| 20260504212104 | 72 | 243 | 6.1 | 11.3 | 0.00 | 0.00 | 0.00 | 44 | 1008.7 |
| 20260504211601 | 72 | 222 | 6.1 | 7.8 | 0.00 | 0.00 | 0.00 | 40 | 1008.9 |
| 20260504211057 | 72 | 193 | 3.5 | 8.7 | 0.00 | 0.00 | 0.00 | 42 | 1009.0 |
| 20260504210555 | 71 | 152 | 3.5 | 13.0 | 0.00 | 0.00 | 0.00 | 43 | 1008.9 |
| 20260504210051 | 72 | 185 | 6.1 | 11.3 | 0.00 | 0.00 | 0.00 | 44 | 1009.0 |
| 20260504205549 | 72 | 203 | 4.3 | 12.2 | 0.00 | 0.00 | 0.00 | 43 | 1008.9 |
| 20260504205047 | 71 | 196 | 3.5 | 9.6 | 0.00 | 0.00 | 0.00 | 46 | 1008.7 |
| 20260504204544 | 71 | 226 | 7.0 | 12.2 | 0.00 | 0.00 | 0.00 | 44 | 1009.1 |
| 20260504204044 | 72 | 229 | 6.1 | 12.2 | 0.00 | 0.00 | 0.00 | 43 | 1009.2 |
| 20260504203541 | 72 | 153 | 6.1 | 8.7 | 0.00 | 0.00 | 0.00 | 43 | 1009.1 |
| 20260504203038 | 72 | 249 | 5.2 | 7.0 | 0.00 | 0.00 | 0.00 | 44 | 1009.2 |
| 20260504202534 | 72 | 165 | 6.1 | 13.9 | 0.00 | 0.00 | 0.00 | 44 | 1009.3 |
| 20260504202031 | 71 | 190 | 2.6 | 9.6 | 0.00 | 0.00 | 0.00 | 42 | 1009.4 |
| 20260504201528 | 72 | 153 | 0.9 | 7.8 | 0.00 | 0.00 | 0.00 | 44 | 1009.3 |
| 20260504201026 | 73 | 232 | 7.0 | 8.7 | 0.00 | 0.00 | 0.00 | 41 | 1009.2 |
| 20260504200521 | 73 | 239 | 5.2 | 9.6 | 0.00 | 0.00 | 0.00 | 43 | 1009.4 |
| 20260504200019 | 73 | 229 | 4.3 | 14.8 | 0.00 | 0.00 | 0.00 | 43 | 1009.5 |
| 20260504195515 | 72 | 205 | 6.1 | 11.3 | 0.00 | 0.00 | 0.00 | 43 | 1009.5 |
| 20260504195011 | 73 | 225 | 3.5 | 7.8 | 0.00 | 0.00 | 0.00 | 40 | 1009.6 |
| 20260504194508 | 72 | 224 | 3.5 | 7.0 | 0.00 | 0.00 | 0.00 | 42 | 1009.7 |
| 20260504194003 | 73 | 234 | 7.8 | 11.3 | 0.00 | 0.00 | 0.00 | 42 | 1009.7 |
| 20260504193500 | 72 | 197 | 10.4 | 13.9 | 0.00 | 0.00 | 0.00 | 41 | 1009.9 |
| 20260504192959 | 72 | 227 | 6.1 | 14.8 | 0.00 | 0.00 | 0.00 | 42 | 1009.9 |
| 20260504192456 | 72 | 163 | 2.6 | 7.0 | 0.00 | 0.00 | 0.00 | 47 | 1010.1 |
| 20260504191955 | 70 | 193 | 4.3 | 7.8 | 0.00 | 0.00 | 0.00 | 45 | 1010.3 |
| 20260504191452 | 70 | 203 | 6.1 | 7.0 | 0.00 | 0.00 | 0.00 | 42 | 1010.2 |
| 20260504190947 | 70 | 262 | 6.1 | 9.6 | 0.00 | 0.00 | 0.00 | 44 | 1010.2 |
| 20260504190444 | 70 | 162 | 6.1 | 9.6 | 0.00 | 0.00 | 0.00 | 45 | 1010.2 |
| 20260504185941 | 70 | 278 | 2.6 | 8.7 | 0.00 | 0.00 | 0.00 | 44 | 1010.1 |
| 20260504185438 | 71 | 242 | 4.3 | 13.0 | 0.00 | 0.00 | 0.00 | 44 | 1010.3 |
| 20260504184934 | 71 | 245 | 7.8 | 11.3 | 0.00 | 0.00 | 0.00 | 45 | 1010.5 |
| 20260504184429 | 71 | 233 | 6.1 | 13.0 | 0.00 | 0.00 | 0.00 | 42 | 1010.6 |
| 20260504183926 | 71 | 149 | 0.9 | 5.2 | 0.00 | 0.00 | 0.00 | 46 | 1010.7 |
| 20260504183423 | 70 | 192 | 7.0 | 8.7 | 0.00 | 0.00 | 0.00 | 42 | 1010.6 |
| 20260504182921 | 70 | 174 | 2.6 | 9.6 | 0.00 | 0.00 | 0.00 | 44 | 1010.6 |
| 20260504182418 | 70 | 266 | 4.3 | 7.0 | 0.00 | 0.00 | 0.00 | 45 | 1010.9 |
| 20260504181914 | 69 | 183 | 5.2 | 11.3 | 0.00 | 0.00 | 0.00 | 46 | 1011.2 |
| 20260504181412 | 67 | 182 | 6.1 | 9.6 | 0.00 | 0.00 | 0.00 | 45 | 1010.8 |
| 20260504180910 | 70 | 221 | 9.6 | 13.0 | 0.00 | 0.00 | 0.00 | 44 | 1011.0 |
| 20260504180409 | 69 | 238 | 8.7 | 9.6 | 0.00 | 0.00 | 0.00 | 45 | 1011.0 |
| 20260504175907 | 68 | 197 | 6.1 | 9.6 | 0.00 | 0.00 | 0.00 | 43 | 1011.1 |
| 20260504175403 | 68 | 224 | 5.2 | 7.8 | 0.00 | 0.00 | 0.00 | 47 | 1011.4 |
| 20260504174901 | 68 | 206 | 3.5 | 7.8 | 0.00 | 0.00 | 0.00 | 45 | 1011.1 |
| 20260504174358 | 69 | 256 | 7.0 | 12.2 | 0.00 | 0.00 | 0.00 | 46 | 1011.3 |
| 20260504173855 | 69 | 220 | 5.2 | 8.7 | 0.00 | 0.00 | 0.00 | 45 | 1011.5 |
| 20260504173352 | 68 | 128 | 8.7 | 17.4 | 0.00 | 0.00 | 0.00 | 45 | 1011.4 |
| 20260504172849 | 68 | 174 | 5.2 | 9.6 | 0.00 | 0.00 | 0.00 | 43 | 1011.5 |
| 20260504172346 | 68 | 251 | 3.5 | 8.7 | 0.00 | 0.00 | 0.00 | 45 | 1011.6 |
| 20260504171841 | 68 | 217 | 5.2 | 11.3 | 0.00 | 0.00 | 0.00 | 44 | 1011.9 |
| 20260504171339 | 68 | 222 | 8.7 | 9.6 | 0.00 | 0.00 | 0.00 | 45 | 1011.6 |
| 20260504170836 | 68 | 249 | 3.5 | 7.0 | 0.00 | 0.00 | 0.00 | 47 | 1011.7 |
| 20260504170332 | 67 | 202 | 7.0 | 17.4 | 0.00 | 0.00 | 0.00 | 47 | 1011.8 |
| 20260504160251 | 64 | 117 | 6.1 | 13.0 | 0.00 | 0.00 | 0.00 | 46 | 1012.6 |
| 20260504150716 | 64 | 188 | 2.6 | 5.2 | 0.00 | 0.00 | 0.00 | 49 | 1013.4 |
| 20260504150213 | 64 | 218 | 7.0 | 8.7 | 0.00 | 0.00 | 0.00 | 44 | 1013.4 |
| 20260504141142 | 62 | 221 | 4.3 | 7.0 | 0.00 | 0.00 | 0.00 | 43 | 1013.6 |
| 20260504140639 | 62 | 176 | 2.6 | 12.2 | 0.00 | 0.00 | 0.00 | 46 | 1013.4 |
| 20260504140135 | 61 | 245 | 6.1 | 6.1 | 0.00 | 0.00 | 0.00 | 42 | 1013.5 |
| 20260504130603 | 55 | 132 | 0.0 | 0.0 | 0.00 | 0.00 | 0.00 | 63 | 1014.3 |
| 20260504110451 | 35 | 125 | 0.0 | 0.0 | 0.00 | 0.00 | 0.00 | 99 | 1014.6 |
| 20260504100413 | 31 | 125 | 0.0 | 0.0 | 0.00 | 0.00 | 0.00 | 99 | 1014.8 |
| 20260504081806 | 32 | 114 | 0.0 | 0.0 | 0.00 | 0.00 | 0.00 | 99 | 1015.1 |
| 20260504081303 | 32 | 119 | 0.0 | 0.0 | 0.00 | 0.00 | 0.00 | 99 | 1015.2 |
| 20260504080759 | 32 | 121 | 0.0 | 0.0 | 0.00 | 0.00 | 0.00 | 99 | 1014.8 |
| 20260504080255 | 32 | 121 | 0.0 | 0.0 | 0.00 | 0.00 | 0.00 | 99 | 1014.9 |
| 20260504070223 | 33 | 121 | 0.0 | 0.0 | 0.00 | 0.00 | 0.00 | 99 | 1014.9 |
| 20260504060144 | 34 | 116 | 0.0 | 0.9 | 0.00 | 0.00 | 0.00 | 99 | 1014.9 |
| 20260504050612 | 35 | 122 | 0.0 | 0.0 | 0.00 | 0.00 | 0.00 | 97 | 1015.0 |
| 20260504050109 | 35 | 121 | 0.0 | 0.0 | 0.00 | 0.00 | 0.00 | 97 | 1015.1 |
| 20260504045606 | 36 | 122 | 0.0 | 0.0 | 0.00 | 0.00 | 0.00 | 97 | 1014.7 |
| 20260504045101 | 36 | 122 | 0.0 | 0.0 | 0.00 | 0.00 | 0.00 | 97 | 1014.8 |
| 20260504044559 | 35 | 122 | 0.0 | 0.0 | 0.00 | 0.00 | 0.00 | 97 | 1015.1 |
| 20260504044055 | 35 | 122 | 0.0 | 0.9 | 0.00 | 0.00 | 0.00 | 96 | 1014.8 |
| 20260504043553 | 36 | 122 | 0.0 | 0.0 | 0.00 | 0.00 | 0.00 | 96 | 1015.0 |
| 20260504043049 | 36 | 122 | 0.0 | 0.0 | 0.00 | 0.00 | 0.00 | 96 | 1015.0 |
| 20260504042547 | 36 | 122 | 0.0 | 1.7 | 0.00 | 0.00 | 0.00 | 96 | 1014.9 |
| 20260504042044 | 36 | 122 | 0.0 | 0.0 | 0.00 | 0.00 | 0.00 | 96 | 1014.8 |
| 20260504041539 | 36 | 122 | 0.0 | 0.0 | 0.00 | 0.00 | 0.00 | 96 | 1014.8 |
| 20260504041036 | 36 | 123 | 0.0 | 0.0 | 0.00 | 0.00 | 0.00 | 96 | 1015.0 |
| 20260504040533 | 36 | 123 | 0.0 | 0.0 | 0.00 | 0.00 | 0.00 | 95 | 1014.8 |
| 20260504040030 | 37 | 123 | 0.0 | 0.0 | 0.00 | 0.00 | 0.00 | 95 | 1014.7 |
| 20260504035527 | 37 | 123 | 0.0 | 0.0 | 0.00 | 0.00 | 0.00 | 95 | 1014.7 |
| 20260504035023 | 37 | 122 | 0.0 | 0.0 | 0.00 | 0.00 | 0.00 | 94 | 1014.6 |
| 20260504034521 | 37 | 122 | 0.0 | 0.0 | 0.00 | 0.00 | 0.00 | 94 | 1014.6 |
| 20260504034017 | 37 | 122 | 0.0 | 0.0 | 0.00 | 0.00 | 0.00 | 93 | 1014.4 |
| 20260504033516 | 37 | 127 | 0.0 | 0.0 | 0.00 | 0.00 | 0.00 | 93 | 1014.4 |
| 20260504033013 | 37 | 127 | 0.0 | 0.0 | 0.00 | 0.00 | 0.00 | 92 | 1014.2 |
| 20260504032509 | 38 | 126 | 0.0 | 0.0 | 0.00 | 0.00 | 0.00 | 92 | 1014.3 |
| 20260504032006 | 38 | 126 | 0.0 | 0.0 | 0.00 | 0.00 | 0.00 | 92 | 1014.4 |
| 20260504031503 | 38 | 131 | 0.0 | 0.0 | 0.00 | 0.00 | 0.00 | 92 | 1014.4 |
| 20260504030959 | 38 | 132 | 0.0 | 0.0 | 0.00 | 0.00 | 0.00 | 92 | 1014.4 |
| 20260504030457 | 39 | 133 | 0.0 | 0.0 | 0.00 | 0.00 | 0.00 | 92 | 1014.3 |
| 20260504025952 | 39 | 133 | 0.0 | 0.0 | 0.00 | 0.00 | 0.00 | 91 | 1014.2 |
| 20260504025450 | 39 | 162 | 0.0 | 0.0 | 0.00 | 0.00 | 0.00 | 90 | 1014.4 |
| 20260504024946 | 39 | 162 | 0.0 | 0.0 | 0.00 | 0.00 | 0.00 | 89 | 1014.3 |
| 20260504024443 | 40 | 162 | 0.0 | 0.0 | 0.00 | 0.00 | 0.00 | 88 | 1014.3 |
| 20260504023940 | 40 | 162 | 0.0 | 0.0 | 0.00 | 0.00 | 0.00 | 87 | 1014.3 |
| 20260504023437 | 40 | 162 | 0.0 | 0.0 | 0.00 | 0.00 | 0.00 | 87 | 1014.3 |
| 20260504022932 | 41 | 162 | 0.0 | 0.0 | 0.00 | 0.00 | 0.00 | 86 | 1014.5 |
| 20260504022429 | 41 | 162 | 0.0 | 0.0 | 0.00 | 0.00 | 0.00 | 85 | 1014.3 |
| 20260504021926 | 41 | 162 | 0.0 | 0.0 | 0.00 | 0.00 | 0.00 | 84 | 1014.1 |
| 20260504021423 | 42 | 162 | 0.0 | 0.0 | 0.00 | 0.00 | 0.00 | 85 | 1014.3 |
| 20260504020920 | 42 | 162 | 0.0 | 0.0 | 0.00 | 0.00 | 0.00 | 84 | 1014.2 |
| 20260504020417 | 42 | 162 | 0.0 | 0.0 | 0.00 | 0.00 | 0.00 | 82 | 1014.2 |
| 20260504015914 | 42 | 162 | 0.0 | 0.0 | 0.00 | 0.00 | 0.00 | 78 | 1014.4 |
| 20260504015410 | 43 | 162 | 0.0 | 0.0 | 0.00 | 0.00 | 0.00 | 79 | 1014.2 |
| 20260504014906 | 44 | 162 | 0.0 | 0.0 | 0.00 | 0.00 | 0.00 | 75 | 1014.4 |
| 20260504014402 | 44 | 162 | 0.0 | 0.0 | 0.00 | 0.00 | 0.00 | 75 | 1014.5 |
| 20260504013859 | 44 | 162 | 0.0 | 0.0 | 0.00 | 0.00 | 0.00 | 74 | 1014.2 |
| 20260504013357 | 45 | 162 | 0.0 | 0.0 | 0.00 | 0.00 | 0.00 | 74 | 1014.3 |
| 20260504012853 | 45 | 162 | 0.0 | 0.0 | 0.00 | 0.00 | 0.00 | 74 | 1014.3 |
| 20260504012351 | 46 | 162 | 0.0 | 0.0 | 0.00 | 0.00 | 0.00 | 73 | 1014.2 |
| 20260504011849 | 46 | 162 | 0.0 | 0.0 | 0.00 | 0.00 | 0.00 | 70 | 1014.0 |
| 20260504011345 | 46 | 162 | 0.0 | 0.0 | 0.00 | 0.00 | 0.00 | 69 | 1014.0 |
| 20260504010841 | 47 | 162 | 0.0 | 0.0 | 0.00 | 0.00 | 0.00 | 68 | 1014.0 |
| 20260504010337 | 48 | 162 | 0.0 | 0.9 | 0.00 | 0.00 | 0.00 | 67 | 1014.2 |
| 20260504005833 | 49 | 164 | 0.0 | 0.0 | 0.00 | 0.00 | 0.00 | 63 | 1013.8 |
| 20260504005330 | 49 | 162 | 0.0 | 0.0 | 0.00 | 0.00 | 0.00 | 61 | 1013.9 |
| 20260504004828 | 49 | 162 | 0.0 | 0.0 | 0.00 | 0.00 | 0.00 | 61 | 1013.9 |
| 20260504004325 | 50 | 166 | 0.9 | 1.7 | 0.00 | 0.00 | 0.00 | 61 | 1013.8 |
| 20260504003821 | 50 | 160 | 0.9 | 1.7 | 0.00 | 0.00 | 0.00 | 60 | 1014.0 |
| 20260504003319 | 51 | 167 | 0.9 | 1.7 | 0.00 | 0.00 | 0.00 | 58 | 1013.8 |
| 20260504002815 | 51 | 162 | 0.9 | 1.7 | 0.00 | 0.00 | 0.00 | 57 | 1013.7 |
| 20260504002312 | 52 | 203 | 0.9 | 1.7 | 0.00 | 0.00 | 0.00 | 55 | 1013.6 |
| 20260504001810 | 53 | 186 | 2.6 | 2.6 | 0.00 | 0.00 | 0.00 | 52 | 1013.4 |
| 20260504001307 | 53 | 188 | 2.6 | 2.6 | 0.00 | 0.00 | 0.00 | 51 | 1013.4 |
| 20260504000804 | 53 | 183 | 1.7 | 2.6 | 0.00 | 0.00 | 0.00 | 52 | 1013.5 |
| 20260504000301 | 54 | 160 | 0.0 | 2.6 | 0.00 | 0.00 | 0.00 | 50 | 1013.4 |
| 20260503235759 | 54 | 248 | 2.6 | 4.3 | 0.00 | 0.00 | 0.00 | 51 | 1013.3 |
| 20260503235256 | 55 | 197 | 3.5 | 5.2 | 0.00 | 0.00 | 0.00 | 48 | 1013.5 |
| 20260503234753 | 55 | 213 | 1.7 | 4.3 | 0.00 | 0.00 | 0.00 | 48 | 1013.1 |
| 20260503234251 | 56 | 180 | 0.9 | 4.3 | 0.00 | 0.00 | 0.00 | 48 | 1013.2 |
| 20260503233748 | 56 | 250 | 2.6 | 7.8 | 0.00 | 0.00 | 0.00 | 42 | 1013.0 |
| 20260503233244 | 57 | 217 | 1.7 | 4.3 | 0.00 | 0.00 | 0.00 | 43 | 1013.0 |
| 20260503232741 | 57 | 245 | 2.6 | 5.2 | 0.00 | 0.00 | 0.00 | 43 | 1013.2 |
| 20260503232238 | 57 | 254 | 2.6 | 6.1 | 0.00 | 0.00 | 0.00 | 42 | 1013.0 |
| 20260503231736 | 57 | 264 | 3.5 | 7.8 | 0.00 | 0.00 | 0.00 | 42 | 1013.1 |
| 20260503231233 | 57 | 283 | 3.5 | 13.0 | 0.00 | 0.00 | 0.00 | 42 | 1013.1 |
| 20260503230729 | 57 | 241 | 2.6 | 6.1 | 0.00 | 0.00 | 0.00 | 43 | 1013.0 |
| 20260503230226 | 57 | 230 | 5.2 | 8.7 | 0.00 | 0.00 | 0.00 | 44 | 1013.0 |
| 20260503225724 | 58 | 252 | 3.5 | 5.2 | 0.00 | 0.00 | 0.00 | 44 | 1012.7 |
| 20260503225224 | 58 | 184 | 2.6 | 5.2 | 0.00 | 0.00 | 0.00 | 44 | 1013.0 |
| 20260503224721 | 58 | 262 | 5.2 | 12.2 | 0.00 | 0.00 | 0.00 | 42 | 1013.0 |
| 20260503224219 | 58 | 226 | 4.3 | 7.8 | 0.00 | 0.00 | 0.00 | 42 | 1012.7 |
| 20260503223716 | 58 | 171 | 2.6 | 7.8 | 0.00 | 0.00 | 0.00 | 41 | 1013.0 |
| 20260503223213 | 59 | 280 | 6.1 | 7.8 | 0.00 | 0.00 | 0.00 | 39 | 1013.2 |
| 20260503222710 | 59 | 222 | 3.5 | 6.1 | 0.00 | 0.00 | 0.00 | 40 | 1013.0 |
| 20260503222208 | 59 | 249 | 5.2 | 12.2 | 0.00 | 0.00 | 0.00 | 41 | 1012.8 |
| 20260503221706 | 59 | 234 | 5.2 | 7.8 | 0.00 | 0.00 | 0.00 | 40 | 1013.2 |
| 20260503221203 | 59 | 274 | 5.2 | 8.7 | 0.00 | 0.00 | 0.00 | 40 | 1012.8 |
| 20260503220700 | 59 | 124 | 2.6 | 7.8 | 0.00 | 0.00 | 0.00 | 40 | 1013.1 |
| 20260503220156 | 59 | 242 | 2.6 | 8.7 | 0.00 | 0.00 | 0.00 | 42 | 1013.0 |
| 20260503215653 | 60 | 239 | 5.2 | 7.8 | 0.00 | 0.00 | 0.00 | 41 | 1013.2 |
| 20260503215150 | 60 | 225 | 5.2 | 7.8 | 0.00 | 0.00 | 0.00 | 42 | 1012.8 |